Location: Newark
(5.8900°S, 42.6378°W)
Time: 04:20:08
(UTC+00:00)

Vanguard 1 Rocket - Pass Details

Date: 18 October 2019
Orbit: 651 x 4225 km, 34.3° (Epoch: 16 November)

Event Time Altitude Azimuth Distance (km) Brightness Sun altitude
Rises 23:01:38 0° 300° (WNW) 8,053 12.8 -34.4°
Reaches altitude 10° 23:07:51 10° 298° (WNW) 6,639 12.2 -35.9°
Maximum altitude 23:26:55 64° 219° (SW) 2,409 9.4 -40.4°
Enters shadow 23:30:25 49° 164° (SSE) 2,388 9.3 -41.3°
Drops below altitude 10° 23:36:29 10° 138° (SE) 3,564 - -42.7°
Sets 23:38:49 0° 134° (SE) 4,240 - -43.2°
